User: anonymous
Location: Hamburg
(53.5500°N, 10.0000°E)
Time: 06:58:58
(UTC+02:00)
Language:

Courier 1B - Orbit

View from above orbital plane
View from above orbital plane
View from above satellite
View from above satellite

Ground track
Ground track

The orbit data is extracted from the following two-line orbital elements,

1 00058U 60013A   14210.42828238  .00000097  00000-0  14086-4 0  7265
2 00058 028.3272 202.0004 0164914 269.3973 088.7674 13.46278240649197
Epoch (UTC): 29 July 2014 10:16:43
Eccentricity: 0.0164914
inclination: 28.3272°
perigee height: 963 km
apogee height: 1209 km
right ascension of ascending node: 202.0004°
argument of perigee: 269.3973°
revolutions per day: 13.46278240
mean anomaly at epoch: 88.7674°
orbit number at epoch: 64919

The dashed part of the orbit path shows where the satellite is in the earth's shadow,  

DLR